| time (UTC) | temp C | wind direction | speed KPH | gust KPH | rain 1hr cm | rain 24hr cm | rain mn cm | humidity % | barometer mb |
| 20260509075145 | 12 | 79 | 12.9 | 17.7 | 0.00 | 0.00 | 0.00 | 45 | 1026.2 |
| 20260509074645 | 12 | 138 | 11.3 | 25.7 | 0.00 | 0.00 | 0.00 | 46 | 1026.2 |
| 20260509074146 | 11 | 133 | 14.5 | 25.7 | 0.00 | 0.00 | 0.00 | 46 | 1026.3 |
| 20260509073645 | 12 | 118 | 9.7 | 24.1 | 0.00 | 0.00 | 0.00 | 46 | 1026.2 |
| 20260509073145 | 12 | 131 | 14.5 | 24.1 | 0.00 | 0.00 | 0.00 | 48 | 1026.2 |
| 20260509072645 | 11 | 189 | 9.7 | 19.3 | 0.00 | 0.00 | 0.00 | 46 | 1026.2 |
| 20260509072146 | 11 | 135 | 16.1 | 20.9 | 0.00 | 0.00 | 0.00 | 47 | 1026.2 |
| 20260509071644 | 12 | 109 | 8.0 | 20.9 | 0.00 | 0.00 | 0.00 | 47 | 1026.2 |
| 20260509071145 | 12 | 171 | 6.4 | 14.5 | 0.00 | 0.00 | 0.00 | 49 | 1026.2 |
| 20260509070645 | 11 | 142 | 6.4 | 14.5 | 0.00 | 0.00 | 0.00 | 49 | 1026.3 |
| 20260509070144 | 11 | 137 | 3.2 | 17.7 | 0.00 | 0.00 | 0.00 | 54 | 1026.3 |
| 20260509065644 | 11 | 109 | 8.0 | 17.7 | 0.00 | 0.00 | 0.00 | 54 | 1026.3 |
| 20260509065145 | 11 | 116 | 6.4 | 14.5 | 0.00 | 0.00 | 0.00 | 55 | 1026.3 |
| 20260509064645 | 11 | 161 | 4.8 | 14.5 | 0.00 | 0.00 | 0.00 | 56 | 1026.3 |
| 20260509064145 | 10 | 99 | 6.4 | 9.7 | 0.00 | 0.00 | 0.00 | 57 | 1026.3 |
| 20260509063644 | 10 | 117 | 6.4 | 9.7 | 0.00 | 0.00 | 0.00 | 58 | 1026.3 |
| 20260509063144 | 10 | 97 | 1.6 | 8.0 | 0.00 | 0.00 | 0.00 | 59 | 1026.3 |
| 20260509062644 | 10 | 165 | 6.4 | 14.5 | 0.00 | 0.00 | 0.00 | 58 | 1026.3 |
| 20260509062410 | 10 | 151 | 8.0 | 14.5 | 0.00 | 0.00 | 0.00 | 59 | 1026.3 |
| 20260509061907 | 10 | 124 | 9.7 | 14.5 | 0.00 | 0.00 | 0.00 | 58 | 1026.3 |
| 20260509061144 | 10 | 82 | 6.4 | 11.3 | 0.00 | 0.00 | 0.00 | 59 | 1026.3 |
| 20260509060643 | 9 | 96 | 8.0 | 11.3 | 0.00 | 0.00 | 0.00 | 60 | 1026.3 |
| 20260509060144 | 9 | 117 | 6.4 | 11.3 | 0.00 | 0.00 | 0.00 | 60 | 1026.3 |
| 20260509055643 | 9 | 120 | 8.0 | 11.3 | 0.00 | 0.00 | 0.00 | 60 | 1026.3 |
| 20260509055143 | 9 | 120 | 4.8 | 14.5 | 0.00 | 0.00 | 0.00 | 60 | 1026.3 |
| 20260509054643 | 9 | 133 | 3.2 | 14.5 | 0.00 | 0.00 | 0.00 | 61 | 1026.3 |
| 20260509054143 | 8 | 138 | 6.4 | 17.7 | 0.00 | 0.00 | 0.00 | 62 | 1026.4 |
| 20260509053643 | 8 | 157 | 3.2 | 17.7 | 0.00 | 0.00 | 0.00 | 62 | 1026.4 |
| 20260509053407 | 8 | 114 | 8.0 | 16.1 | 0.00 | 0.00 | 0.00 | 61 | 1026.4 |
| 20260509052643 | 8 | 111 | 4.8 | 16.1 | 0.00 | 0.00 | 0.00 | 62 | 1026.4 |
| 20260509052143 | 8 | 130 | 6.4 | 16.1 | 0.00 | 0.00 | 0.00 | 62 | 1026.4 |
| 20260509051642 | 8 | 154 | 8.0 | 11.3 | 0.00 | 0.00 | 0.00 | 63 | 1026.4 |
| 20260509051407 | 8 | 110 | 4.8 | 9.7 | 0.00 | 0.00 | 0.00 | 63 | 1026.4 |
| 20260509050643 | 7 | 80 | 6.4 | 9.7 | 0.00 | 0.00 | 0.00 | 64 | 1026.6 |
| 20260509050143 | 7 | 87 | 6.4 | 9.7 | 0.00 | 0.00 | 0.00 | 64 | 1026.5 |
| 20260509045642 | 7 | 104 | 6.4 | 9.7 | 0.00 | 0.00 | 0.00 | 64 | 1026.5 |
| 20260509045141 | 7 | 89 | 4.8 | 8.0 | 0.00 | 0.00 | 0.00 | 65 | 1026.6 |
| 20260509044642 | 6 | 66 | 4.8 | 8.0 | 0.00 | 0.00 | 0.00 | 66 | 1026.5 |
| 20260509044631 | 6 | 103 | 6.4 | 8.0 | 0.00 | 0.00 | 0.00 | 66 | 1026.5 |
| 20260509043642 | 6 | 87 | 4.8 | 9.7 | 0.00 | 0.00 | 0.00 | 66 | 1026.5 |
| 20260509043142 | 6 | 93 | 6.4 | 9.7 | 0.00 | 0.00 | 0.00 | 67 | 1026.5 |
| 20260509042908 | 6 | 80 | 6.4 | 8.0 | 0.00 | 0.00 | 0.00 | 67 | 1026.5 |
| 20260509042141 | 5 | 89 | 6.4 | 8.0 | 0.00 | 0.00 | 0.00 | 68 | 1026.5 |
| 20260509041641 | 5 | 79 | 6.4 | 8.0 | 0.00 | 0.00 | 0.00 | 68 | 1026.5 |
| 20260509041141 | 5 | 83 | 3.2 | 6.4 | 0.00 | 0.00 | 0.00 | 67 | 1026.4 |
| 20260509040642 | 5 | 94 | 4.8 | 6.4 | 0.00 | 0.00 | 0.00 | 68 | 1026.5 |
| 20260509040141 | 5 | 94 | 3.2 | 4.8 | 0.00 | 0.00 | 0.00 | 68 | 1026.4 |
| 20260509035641 | 5 | 102 | 4.8 | 4.8 | 0.00 | 0.00 | 0.00 | 68 | 1026.5 |
| 20260509035141 | 5 | 102 | 3.2 | 4.8 | 0.00 | 0.00 | 0.00 | 68 | 1026.5 |
| 20260509034641 | 5 | 110 | 3.2 | 6.4 | 0.00 | 0.00 | 0.00 | 68 | 1026.6 |
| 20260509034141 | 4 | 111 | 4.8 | 6.4 | 0.00 | 0.00 | 0.00 | 70 | 1026.6 |
| 20260509033640 | 4 | 114 | 4.8 | 4.8 | 0.00 | 0.00 | 0.00 | 71 | 1026.6 |
| 20260509033625 | 3 | 114 | 3.2 | 4.8 | 0.00 | 0.00 | 0.00 | 72 | 1026.6 |
| 20260509032640 | 3 | 114 | 3.2 | 4.8 | 0.00 | 0.00 | 0.00 | 72 | 1026.6 |
| 20260509032406 | 3 | 121 | 3.2 | 4.8 | 0.00 | 0.00 | 0.00 | 71 | 1026.7 |
| 20260509031640 | 3 | 123 | 3.2 | 3.2 | 0.00 | 0.00 | 0.00 | 71 | 1026.7 |
| 20260509031141 | 3 | 123 | 3.2 | 3.2 | 0.00 | 0.00 | 0.00 | 71 | 1026.7 |
| 20260509030640 | 3 | 123 | 3.2 | 3.2 | 0.00 | 0.00 | 0.00 | 70 | 1026.7 |
| 20260509030140 | 3 | 123 | 3.2 | 3.2 | 0.00 | 0.00 | 0.00 | 70 | 1026.6 |
| 20260509025857 | 3 | 123 | 1.6 | 3.2 | 0.00 | 0.00 | 0.00 | 69 | 1026.6 |
| 20260509025139 | 3 | 123 | 1.6 | 3.2 | 0.00 | 0.00 | 0.00 | 68 | 1026.7 |
| 20260509024639 | 3 | 123 | 3.2 | 4.8 | 0.00 | 0.00 | 0.00 | 69 | 1026.7 |
| 20260509024140 | 3 | 123 | 3.2 | 4.8 | 0.00 | 0.00 | 0.00 | 69 | 1026.6 |
| 20260509023639 | 3 | 123 | 3.2 | 4.8 | 0.00 | 0.00 | 0.00 | 70 | 1026.6 |
| 20260509023139 | 3 | 123 | 3.2 | 4.8 | 0.00 | 0.00 | 0.00 | 70 | 1026.7 |
| 20260509022639 | 2 | 123 | 3.2 | 3.2 | 0.00 | 0.00 | 0.00 | 70 | 1026.6 |
| 20260509022356 | 2 | 123 | 1.6 | 3.2 | 0.00 | 0.00 | 0.00 | 70 | 1026.7 |
| 20260509021639 | 2 | 123 | 1.6 | 3.2 | 0.00 | 0.00 | 0.00 | 69 | 1026.7 |
| 20260509021138 | 2 | 123 | 3.2 | 3.2 | 0.00 | 0.00 | 0.00 | 70 | 1026.7 |
| 20260509020639 | 2 | 123 | 3.2 | 3.2 | 0.00 | 0.00 | 0.00 | 71 | 1026.7 |
| 20260509020359 | 2 | 123 | 3.2 | 3.2 | 0.00 | 0.00 | 0.00 | 71 | 1026.7 |
| 20260509015638 | 2 | 123 | 1.6 | 3.2 | 0.00 | 0.00 | 0.00 | 71 | 1026.8 |
| 20260509015138 | 2 | 123 | 0.0 | 0.0 | 0.00 | 0.00 | 0.00 | 70 | 1026.8 |
| 20260509014638 | 2 | 123 | 0.0 | 0.0 | 0.00 | 0.00 | 0.00 | 70 | 1026.8 |
| 20260509014138 | 2 | 123 | 0.0 | 0.0 | 0.00 | 0.00 | 0.00 | 69 | 1026.7 |
| 20260509013638 | 2 | 123 | 0.0 | 0.0 | 0.00 | 0.00 | 0.00 | 70 | 1026.7 |
| 20260509013138 | 2 | 123 | 0.0 | 0.0 | 0.00 | 0.00 | 0.00 | 70 | 1026.7 |
| 20260509012638 | 2 | 123 | 0.0 | 0.0 | 0.00 | 0.00 | 0.00 | 69 | 1026.8 |
| 20260509012406 | 2 | 123 | 0.0 | 0.0 | 0.00 | 0.00 | 0.00 | 69 | 1026.7 |
| 20260509011637 | 2 | 123 | 0.0 | 0.0 | 0.00 | 0.00 | 0.00 | 71 | 1026.7 |
| 20260509011138 | 2 | 123 | 0.0 | 0.0 | 0.00 | 0.00 | 0.00 | 71 | 1026.7 |
| 20260509010638 | 2 | 123 | 0.0 | 0.0 | 0.00 | 0.00 | 0.00 | 70 | 1026.7 |
| 20260509010137 | 2 | 123 | 0.0 | 0.0 | 0.00 | 0.00 | 0.00 | 70 | 1026.7 |
| 20260509005637 | 2 | 123 | 0.0 | 0.0 | 0.00 | 0.00 | 0.00 | 70 | 1026.7 |
| 20260509005137 | 3 | 123 | 0.0 | 0.0 | 0.00 | 0.00 | 0.00 | 69 | 1026.7 |
| 20260509004637 | 3 | 123 | 0.0 | 1.6 | 0.00 | 0.00 | 0.00 | 69 | 1026.8 |
| 20260509004136 | 3 | 123 | 0.0 | 1.6 | 0.00 | 0.00 | 0.00 | 70 | 1026.8 |
| 20260509003637 | 3 | 123 | 1.6 | 1.6 | 0.00 | 0.00 | 0.00 | 70 | 1026.8 |
| 20260509003136 | 3 | 123 | 0.0 | 1.6 | 0.00 | 0.00 | 0.00 | 69 | 1026.7 |
| 20260509002636 | 3 | 123 | 0.0 | 0.0 | 0.00 | 0.00 | 0.00 | 68 | 1026.7 |
| 20260509002136 | 3 | 123 | 0.0 | 1.6 | 0.00 | 0.00 | 0.00 | 67 | 1026.6 |
| 20260509001636 | 3 | 123 | 0.0 | 3.2 | 0.00 | 0.00 | 0.00 | 67 | 1026.6 |
| 20260509001136 | 3 | 123 | 1.6 | 3.2 | 0.00 | 0.00 | 0.00 | 66 | 1026.7 |
| 20260509000636 | 3 | 123 | 1.6 | 3.2 | 0.00 | 0.00 | 0.00 | 68 | 1026.6 |
| 20260509000136 | 2 | 123 | 1.6 | 3.2 | 0.00 | 0.00 | 0.00 | 69 | 1026.6 |
| 20260508235636 | 3 | 123 | 0.0 | 0.0 | 0.00 | 0.00 | 0.00 | 68 | 1026.6 |
| 20260508235135 | 3 | 123 | 0.0 | 0.0 | 0.00 | 0.00 | 0.00 | 68 | 1026.6 |
| 20260508234852 | 3 | 123 | 0.0 | 0.0 | 0.00 | 0.00 | 0.00 | 68 | 1026.6 |
| 20260508234135 | 3 | 123 | 0.0 | 0.0 | 0.00 | 0.00 | 0.00 | 68 | 1026.6 |
| 20260508233859 | 3 | 123 | 0.0 | 0.0 | 0.00 | 0.00 | 0.00 | 69 | 1026.6 |
| 20260508233135 | 3 | 123 | 0.0 | 0.0 | 0.00 | 0.00 | 0.00 | 69 | 1026.7 |
| 20260508232635 | 3 | 123 | 0.0 | 0.0 | 0.00 | 0.00 | 0.00 | 69 | 1026.8 |
| 20260508232135 | 3 | 123 | 0.0 | 0.0 | 0.00 | 0.00 | 0.00 | 69 | 1026.8 |
| 20260508231635 | 3 | 123 | 0.0 | 0.0 | 0.00 | 0.00 | 0.00 | 70 | 1026.7 |
| 20260508231135 | 3 | 123 | 0.0 | 0.0 | 0.00 | 0.00 | 0.00 | 70 | 1026.8 |
| 20260508230635 | 3 | 123 | 0.0 | 0.0 | 0.00 | 0.00 | 0.00 | 70 | 1026.8 |
| 20260508230135 | 3 | 123 | 0.0 | 0.0 | 0.00 | 0.00 | 0.00 | 69 | 1026.7 |
| 20260508225859 | 3 | 123 | 0.0 | 0.0 | 0.00 | 0.00 | 0.00 | 69 | 1026.7 |
| 20260508225135 | 3 | 123 | 0.0 | 0.0 | 0.00 | 0.00 | 0.00 | 68 | 1026.7 |
| 20260508224635 | 3 | 123 | 0.0 | 0.0 | 0.00 | 0.00 | 0.00 | 67 | 1026.7 |
| 20260508224135 | 3 | 123 | 0.0 | 0.0 | 0.00 | 0.00 | 0.00 | 67 | 1026.7 |
| 20260508223635 | 3 | 123 | 0.0 | 1.6 | 0.00 | 0.00 | 0.00 | 66 | 1026.7 |
| 20260508223136 | 3 | 123 | 0.0 | 1.6 | 0.00 | 0.00 | 0.00 | 66 | 1026.8 |
| 20260508222858 | 3 | 123 | 1.6 | 1.6 | 0.00 | 0.00 | 0.00 | 66 | 1026.8 |
| 20260508222136 | 3 | 123 | 1.6 | 1.6 | 0.00 | 0.00 | 0.00 | 65 | 1026.7 |
| 20260508221635 | 3 | 123 | 0.0 | 1.6 | 0.00 | 0.00 | 0.00 | 63 | 1026.7 |
| 20260508221557 | 3 | 123 | 0.0 | 3.2 | 0.00 | 0.00 | 0.00 | 63 | 1026.8 |
| 20260508220135 | 3 | 123 | 1.6 | 3.2 | 0.00 | 0.00 | 0.00 | 63 | 1026.7 |
| 20260508215635 | 3 | 123 | 1.6 | 1.6 | 0.00 | 0.00 | 0.00 | 63 | 1026.8 |
| 20260508215135 | 3 | 123 | 0.0 | 1.6 | 0.00 | 0.00 | 0.00 | 64 | 1026.8 |
| 20260508214903 | 3 | 123 | 0.0 | 0.0 | 0.00 | 0.00 | 0.00 | 63 | 1026.8 |
| 20260508214134 | 3 | 123 | 0.0 | 0.0 | 0.00 | 0.00 | 0.00 | 65 | 1026.8 |
| 20260508213635 | 3 | 123 | 0.0 | 0.0 | 0.00 | 0.00 | 0.00 | 63 | 1026.9 |
| 20260508213134 | 3 | 123 | 0.0 | 0.0 | 0.00 | 0.00 | 0.00 | 62 | 1026.9 |
| 20260508212859 | 3 | 123 | 0.0 | 0.0 | 0.00 | 0.00 | 0.00 | 62 | 1027.0 |
| 20260508212136 | 3 | 123 | 0.0 | 0.0 | 0.00 | 0.00 | 0.00 | 61 | 1027.0 |
| 20260508211634 | 3 | 123 | 0.0 | 0.0 | 0.00 | 0.00 | 0.00 | 61 | 1026.9 |
| 20260508211134 | 3 | 123 | 0.0 | 0.0 | 0.00 | 0.00 | 0.00 | 60 | 1026.9 |
| 20260508210634 | 4 | 123 | 0.0 | 0.0 | 0.00 | 0.00 | 0.00 | 60 | 1026.9 |
| 20260508210133 | 4 | 123 | 0.0 | 0.0 | 0.00 | 0.00 | 0.00 | 60 | 1026.9 |
| 20260508205633 | 4 | 123 | 0.0 | 0.0 | 0.00 | 0.00 | 0.00 | 59 | 1026.9 |
| 20260508205133 | 4 | 123 | 0.0 | 1.6 | 0.00 | 0.00 | 0.00 | 59 | 1026.9 |
| 20260508204631 | 4 | 123 | 0.0 | 3.2 | 0.00 | 0.00 | 0.00 | 59 | 1026.9 |
| 20260508204350 | 4 | 123 | 1.6 | 3.2 | 0.00 | 0.00 | 0.00 | 59 | 1026.9 |
| 20260508203855 | 5 | 123 | 1.6 | 3.2 | 0.00 | 0.00 | 0.00 | 58 | 1026.7 |
| 20260508203131 | 5 | 123 | 1.6 | 1.6 | 0.00 | 0.00 | 0.00 | 59 | 1026.8 |
| 20260508202633 | 5 | 123 | 1.6 | 1.6 | 0.00 | 0.00 | 0.00 | 59 | 1026.9 |
| 20260508202132 | 5 | 123 | 1.6 | 1.6 | 0.00 | 0.00 | 0.00 | 57 | 1026.8 |
| 20260508201633 | 5 | 123 | 0.0 | 1.6 | 0.00 | 0.00 | 0.00 | 58 | 1026.9 |
| 20260508201132 | 5 | 123 | 1.6 | 1.6 | 0.00 | 0.00 | 0.00 | 57 | 1026.9 |
| 20260508200633 | 5 | 123 | 1.6 | 1.6 | 0.00 | 0.00 | 0.00 | 56 | 1026.8 |
| 20260508200131 | 5 | 123 | 1.6 | 1.6 | 0.00 | 0.00 | 0.00 | 57 | 1026.8 |
| 20260508195631 | 6 | 123 | 1.6 | 1.6 | 0.00 | 0.00 | 0.00 | 55 | 1026.8 |
| 20260508195354 | 6 | 123 | 1.6 | 1.6 | 0.00 | 0.00 | 0.00 | 55 | 1026.8 |
| 20260508194631 | 6 | 123 | 1.6 | 1.6 | 0.00 | 0.00 | 0.00 | 54 | 1026.7 |
| 20260508194129 | 6 | 123 | 1.6 | 1.6 | 0.00 | 0.00 | 0.00 | 55 | 1026.8 |
| 20260508193633 | 6 | 123 | 1.6 | 1.6 | 0.00 | 0.00 | 0.00 | 54 | 1026.8 |
| 20260508193133 | 6 | 123 | 1.6 | 3.2 | 0.00 | 0.00 | 0.00 | 53 | 1026.8 |
| 20260508192633 | 6 | 123 | 1.6 | 3.2 | 0.00 | 0.00 | 0.00 | 52 | 1026.8 |
| 20260508192133 | 7 | 123 | 1.6 | 3.2 | 0.00 | 0.00 | 0.00 | 52 | 1026.7 |
| 20260508191634 | 7 | 123 | 1.6 | 3.2 | 0.00 | 0.00 | 0.00 | 51 | 1026.7 |
| 20260508191133 | 7 | 123 | 1.6 | 1.6 | 0.00 | 0.00 | 0.00 | 50 | 1026.8 |
| 20260508190633 | 7 | 123 | 1.6 | 1.6 | 0.00 | 0.00 | 0.00 | 49 | 1026.7 |
| 20260508190132 | 7 | 123 | 0.0 | 0.0 | 0.00 | 0.00 | 0.00 | 48 | 1026.7 |
| 20260508185858 | 8 | 123 | 0.0 | 0.0 | 0.00 | 0.00 | 0.00 | 48 | 1026.7 |
| 20260508185132 | 8 | 123 | 0.0 | 0.0 | 0.00 | 0.00 | 0.00 | 47 | 1026.6 |
| 20260508184631 | 8 | 123 | 0.0 | 1.6 | 0.00 | 0.00 | 0.00 | 46 | 1026.6 |
| 20260508184131 | 9 | 123 | 0.0 | 1.6 | 0.00 | 0.00 | 0.00 | 44 | 1026.6 |
| 20260508183631 | 9 | 123 | 1.6 | 3.2 | 0.00 | 0.00 | 0.00 | 44 | 1026.7 |
| 20260508183131 | 9 | 123 | 3.2 | 3.2 | 0.00 | 0.00 | 0.00 | 42 | 1026.7 |
| 20260508182630 | 9 | 123 | 3.2 | 3.2 | 0.00 | 0.00 | 0.00 | 42 | 1026.5 |
| 20260508182131 | 10 | 123 | 1.6 | 3.2 | 0.00 | 0.00 | 0.00 | 41 | 1026.6 |
| 20260508181630 | 10 | 123 | 1.6 | 4.8 | 0.00 | 0.00 | 0.00 | 40 | 1026.6 |
| 20260508181130 | 10 | 123 | 3.2 | 4.8 | 0.00 | 0.00 | 0.00 | 39 | 1026.6 |
| 20260508180630 | 10 | 123 | 3.2 | 4.8 | 0.00 | 0.00 | 0.00 | 38 | 1026.6 |
| 20260508180351 | 10 | 123 | 3.2 | 4.8 | 0.00 | 0.00 | 0.00 | 38 | 1026.6 |
| 20260508175858 | 10 | 123 | 1.6 | 4.8 | 0.00 | 0.00 | 0.00 | 37 | 1026.6 |
| 20260508175132 | 10 | 123 | 3.2 | 8.0 | 0.00 | 0.00 | 0.00 | 37 | 1026.6 |
| 20260508174631 | 11 | 125 | 4.8 | 8.0 | 0.00 | 0.00 | 0.00 | 36 | 1026.6 |
| 20260508174129 | 11 | 118 | 3.2 | 6.4 | 0.00 | 0.00 | 0.00 | 36 | 1026.6 |
| 20260508173630 | 11 | 121 | 3.2 | 8.0 | 0.00 | 0.00 | 0.00 | 36 | 1026.4 |
| 20260508173129 | 11 | 151 | 4.8 | 9.7 | 0.00 | 0.00 | 0.00 | 35 | 1026.5 |
| 20260508172629 | 11 | 148 | 6.4 | 9.7 | 0.00 | 0.00 | 0.00 | 34 | 1026.5 |
| 20260508172129 | 11 | 155 | 6.4 | 8.0 | 0.00 | 0.00 | 0.00 | 34 | 1026.4 |
| 20260508171628 | 11 | 162 | 4.8 | 11.3 | 0.00 | 0.00 | 0.00 | 35 | 1026.5 |
| 20260508171359 | 11 | 87 | 4.8 | 11.3 | 0.00 | 0.00 | 0.00 | 35 | 1026.5 |
| 20260508170629 | 11 | 111 | 9.7 | 11.3 | 0.00 | 0.00 | 0.00 | 35 | 1026.5 |
| 20260508170128 | 11 | 144 | 8.0 | 9.7 | 0.00 | 0.00 | 0.00 | 36 | 1026.5 |
| 20260508170115 | 11 | 118 | 6.4 | 9.7 | 0.00 | 0.00 | 0.00 | 37 | 1026.5 |
| 20260508165129 | 11 | 120 | 6.4 | 9.7 | 0.00 | 0.00 | 0.00 | 36 | 1026.5 |
| 20260508164848 | 11 | 117 | 6.4 | 9.7 | 0.00 | 0.00 | 0.00 | 35 | 1026.5 |
| 20260508164130 | 11 | 151 | 6.4 | 11.3 | 0.00 | 0.00 | 0.00 | 34 | 1026.4 |
| 20260508163629 | 11 | 107 | 6.4 | 11.3 | 0.00 | 0.00 | 0.00 | 33 | 1026.4 |
| 20260508163547 | 12 | 199 | 1.6 | 11.3 | 0.00 | 0.00 | 0.00 | 32 | 1026.5 |
| 20260508162130 | 12 | 190 | 3.2 | 11.3 | 0.00 | 0.00 | 0.00 | 31 | 1026.5 |
| 20260508161628 | 11 | 183 | 6.4 | 14.5 | 0.00 | 0.00 | 0.00 | 30 | 1026.6 |
| 20260508161352 | 11 | 124 | 8.0 | 16.1 | 0.00 | 0.00 | 0.00 | 29 | 1026.6 |
| 20260508160627 | 11 | 161 | 9.7 | 16.1 | 0.00 | 0.00 | 0.00 | 31 | 1026.6 |
| 20260508160127 | 12 | 86 | 3.2 | 14.5 | 0.00 | 0.00 | 0.00 | 29 | 1026.6 |
| 20260508155629 | 12 | 159 | 3.2 | 14.5 | 0.00 | 0.00 | 0.00 | 30 | 1026.6 |
| 20260508155130 | 12 | 124 | 9.7 | 14.5 | 0.00 | 0.00 | 0.00 | 30 | 1026.7 |
| 20260508154628 | 12 | 171 | 6.4 | 11.3 | 0.00 | 0.00 | 0.00 | 29 | 1026.7 |
| 20260508154129 | 12 | 172 | 4.8 | 11.3 | 0.00 | 0.00 | 0.00 | 29 | 1026.7 |
| 20260508153630 | 12 | 189 | 8.0 | 14.5 | 0.00 | 0.00 | 0.00 | 29 | 1026.6 |
| 20260508153128 | 12 | 158 | 8.0 | 19.3 | 0.00 | 0.00 | 0.00 | 29 | 1026.7 |
| 20260508152628 | 12 | 185 | 11.3 | 19.3 | 0.00 | 0.00 | 0.00 | 29 | 1026.8 |
| 20260508152128 | 12 | 155 | 4.8 | 17.7 | 0.00 | 0.00 | 0.00 | 30 | 1026.7 |
| 20260508151627 | 12 | 157 | 4.8 | 17.7 | 0.00 | 0.00 | 0.00 | 29 | 1026.6 |
| 20260508151128 | 12 | 114 | 9.7 | 14.5 | 0.00 | 0.00 | 0.00 | 29 | 1026.6 |
| 20260508150628 | 12 | 124 | 6.4 | 14.5 | 0.00 | 0.00 | 0.00 | 29 | 1026.6 |
| 20260508150129 | 12 | 221 | 6.4 | 11.3 | 0.00 | 0.00 | 0.00 | 29 | 1026.6 |
| 20260508145628 | 12 | 157 | 8.0 | 11.3 | 0.00 | 0.00 | 0.00 | 28 | 1026.6 |
| 20260508145349 | 12 | 204 | 9.7 | 11.3 | 0.00 | 0.00 | 0.00 | 28 | 1026.7 |
| 20260508144627 | 12 | 152 | 6.4 | 16.1 | 0.00 | 0.00 | 0.00 | 30 | 1026.7 |
| 20260508144126 | 12 | 99 | 9.7 | 17.7 | 0.00 | 0.00 | 0.00 | 30 | 1026.8 |
| 20260508143626 | 12 | 172 | 9.7 | 17.7 | 0.00 | 0.00 | 0.00 | 29 | 1026.9 |
| 20260508143126 | 12 | 103 | 6.4 | 19.3 | 0.00 | 0.00 | 0.00 | 29 | 1026.8 |
| 20260508142625 | 12 | 145 | 11.3 | 19.3 | 0.00 | 0.00 | 0.00 | 29 | 1026.7 |
| 20260508142126 | 12 | 124 | 9.7 | 17.7 | 0.00 | 0.00 | 0.00 | 29 | 1026.8 |
| 20260508141625 | 12 | 183 | 8.0 | 17.7 | 0.00 | 0.00 | 0.00 | 29 | 1026.7 |
| 20260508141125 | 12 | 147 | 4.8 | 14.5 | 0.00 | 0.00 | 0.00 | 29 | 1026.8 |
| 20260508140625 | 12 | 206 | 8.0 | 14.5 | 0.00 | 0.00 | 0.00 | 28 | 1026.7 |
| 20260508140124 | 12 | 148 | 8.0 | 14.5 | 0.00 | 0.00 | 0.00 | 29 | 1026.8 |
| 20260508135849 | 12 | 138 | 9.7 | 16.1 | 0.00 | 0.00 | 0.00 | 30 | 1026.7 |
| 20260508135139 | 12 | 166 | 6.4 | 16.1 | 0.00 | 0.00 | 0.00 | 29 | 1026.7 |
| 20260508134626 | 12 | 219 | 9.7 | 17.7 | 0.00 | 0.00 | 0.00 | 28 | 1026.8 |
| 20260508134125 | 13 | 180 | 9.7 | 17.7 | 0.00 | 0.00 | 0.00 | 29 | 1026.8 |
| 20260508133626 | 12 | 161 | 4.8 | 19.3 | 0.00 | 0.00 | 0.00 | 30 | 1026.8 |
| 20260508133127 | 12 | 162 | 8.0 | 19.3 | 0.00 | 0.00 | 0.00 | 29 | 1026.9 |
| 20260508132625 | 12 | 162 | 8.0 | 19.3 | 0.00 | 0.00 | 0.00 | 28 | 1026.9 |
| 20260508132344 | 12 | 151 | 9.7 | 14.5 | 0.00 | 0.00 | 0.00 | 29 | 1026.8 |
| 20260508131623 | 12 | 199 | 6.4 | 19.3 | 0.00 | 0.00 | 0.00 | 30 | 1026.9 |
| 20260508131136 | 12 | 158 | 9.7 | 19.3 | 0.00 | 0.00 | 0.00 | 28 | 1027.0 |
| 20260508130625 | 12 | 186 | 4.8 | 17.7 | 0.00 | 0.00 | 0.00 | 30 | 1026.9 |
| 20260508130124 | 12 | 196 | 11.3 | 17.7 | 0.00 | 0.00 | 0.00 | 27 | 1027.0 |
| 20260508125625 | 12 | 165 | 8.0 | 17.7 | 0.00 | 0.00 | 0.00 | 27 | 1027.0 |
| 20260508125125 | 12 | 185 | 11.3 | 17.7 | 0.00 | 0.00 | 0.00 | 28 | 1027.0 |
| 20260508124624 | 13 | 206 | 9.7 | 20.9 | 0.00 | 0.00 | 0.00 | 30 | 1027.0 |
| 20260508124350 | 12 | 120 | 16.1 | 20.9 | 0.00 | 0.00 | 0.00 | 31 | 1026.9 |
| 20260508123624 | 12 | 145 | 8.0 | 19.3 | 0.00 | 0.00 | 0.00 | 32 | 1026.9 |
| 20260508123125 | 12 | 168 | 11.3 | 19.3 | 0.00 | 0.00 | 0.00 | 31 | 1027.0 |
| 20260508122624 | 13 | 104 | 9.7 | 19.3 | 0.00 | 0.00 | 0.00 | 31 | 1026.9 |
| 20260508122124 | 12 | 141 | 11.3 | 19.3 | 0.00 | 0.00 | 0.00 | 29 | 1026.9 |
| 20260508121624 | 12 | 151 | 9.7 | 24.1 | 0.00 | 0.00 | 0.00 | 30 | 1026.9 |
| 20260508121125 | 12 | 138 | 12.9 | 24.1 | 0.00 | 0.00 | 0.00 | 31 | 1027.1 |
| 20260508120624 | 12 | 123 | 11.3 | 22.5 | 0.00 | 0.00 | 0.00 | 30 | 1026.9 |
| 20260508120124 | 12 | 92 | 14.5 | 20.9 | 0.00 | 0.00 | 0.00 | 32 | 1026.9 |
| 20260508115624 | 12 | 157 | 9.7 | 19.3 | 0.00 | 0.00 | 0.00 | 31 | 1027.0 |
| 20260508115125 | 12 | 157 | 9.7 | 19.3 | 0.00 | 0.00 | 0.00 | 32 | 1027.0 |
| 20260508114624 | 12 | 135 | 11.3 | 19.3 | 0.00 | 0.00 | 0.00 | 32 | 1027.0 |
| 20260508114124 | 12 | 195 | 11.3 | 19.3 | 0.00 | 0.00 | 0.00 | 32 | 1026.9 |
| 20260508113623 | 12 | 113 | 9.7 | 16.1 | 0.00 | 0.00 | 0.00 | 32 | 1026.9 |
| 20260508113123 | 12 | 164 | 9.7 | 20.9 | 0.00 | 0.00 | 0.00 | 32 | 1027.0 |
| 20260508112623 | 12 | 71 | 14.5 | 20.9 | 0.00 | 0.00 | 0.00 | 33 | 1026.9 |
| 20260508112124 | 12 | 133 | 14.5 | 20.9 | 0.00 | 0.00 | 0.00 | 33 | 1026.9 |
| 20260508111622 | 12 | 111 | 9.7 | 20.9 | 0.00 | 0.00 | 0.00 | 32 | 1026.9 |
| 20260508111123 | 12 | 157 | 9.7 | 22.5 | 0.00 | 0.00 | 0.00 | 34 | 1026.9 |
| 20260508110623 | 12 | 135 | 17.7 | 24.1 | 0.00 | 0.00 | 0.00 | 33 | 1026.9 |
| 20260508110122 | 12 | 113 | 17.7 | 24.1 | 0.00 | 0.00 | 0.00 | 34 | 1027.0 |
| 20260508105623 | 12 | 204 | 12.9 | 24.1 | 0.00 | 0.00 | 0.00 | 34 | 1026.9 |
| 20260508105343 | 12 | 141 | 16.1 | 20.9 | 0.00 | 0.00 | 0.00 | 34 | 1026.9 |
| 20260508104623 | 12 | 144 | 14.5 | 22.5 | 0.00 | 0.00 | 0.00 | 33 | 1026.9 |
| 20260508104122 | 12 | 114 | 14.5 | 22.5 | 0.00 | 0.00 | 0.00 | 33 | 1026.9 |
| 20260508103622 | 12 | 158 | 12.9 | 22.5 | 0.00 | 0.00 | 0.00 | 34 | 1026.8 |
| 20260508103122 | 12 | 97 | 9.7 | 16.1 | 0.00 | 0.00 | 0.00 | 35 | 1026.9 |
| 20260508102622 | 12 | 138 | 9.7 | 19.3 | 0.00 | 0.00 | 0.00 | 34 | 1026.8 |
| 20260508102343 | 12 | 145 | 8.0 | 22.5 | 0.00 | 0.00 | 0.00 | 35 | 1026.8 |
| 20260508101840 | 12 | 137 | 9.7 | 22.5 | 0.00 | 0.00 | 0.00 | 35 | 1026.8 |
| 20260508101121 | 12 | 142 | 11.3 | 24.1 | 0.00 | 0.00 | 0.00 | 34 | 1026.8 |
| 20260508100622 | 12 | 118 | 12.9 | 24.1 | 0.00 | 0.00 | 0.00 | 33 | 1026.9 |
| 20260508100341 | 12 | 86 | 9.7 | 16.1 | 0.00 | 0.00 | 0.00 | 34 | 1026.8 |
| 20260508095620 | 12 | 72 | 6.4 | 17.7 | 0.00 | 0.00 | 0.00 | 35 | 1026.7 |
| 20260508095120 | 12 | 158 | 11.3 | 22.5 | 0.00 | 0.00 | 0.00 | 35 | 1026.8 |
| 20260508094619 | 12 | 75 | 14.5 | 22.5 | 0.00 | 0.00 | 0.00 | 35 | 1026.8 |
| 20260508094120 | 12 | 104 | 8.0 | 17.7 | 0.00 | 0.00 | 0.00 | 35 | 1026.8 |
| 20260508093619 | 12 | 161 | 8.0 | 19.3 | 0.00 | 0.00 | 0.00 | 37 | 1026.8 |
| 20260508093120 | 12 | 131 | 12.9 | 19.3 | 0.00 | 0.00 | 0.00 | 37 | 1026.8 |
| 20260508092619 | 11 | 102 | 9.7 | 19.3 | 0.00 | 0.00 | 0.00 | 37 | 1026.8 |
| 20260508092119 | 12 | 86 | 12.9 | 19.3 | 0.00 | 0.00 | 0.00 | 36 | 1026.7 |
| 20260508091619 | 12 | 118 | 9.7 | 19.3 | 0.00 | 0.00 | 0.00 | 38 | 1026.8 |
| 20260508091119 | 12 | 130 | 9.7 | 19.3 | 0.00 | 0.00 | 0.00 | 38 | 1026.8 |
| 20260508090619 | 12 | 135 | 6.4 | 19.3 | 0.00 | 0.00 | 0.00 | 39 | 1026.8 |
| 20260508090119 | 12 | 99 | 12.9 | 17.7 | 0.00 | 0.00 | 0.00 | 39 | 1026.7 |
| 20260508085620 | 12 | 97 | 12.9 | 16.1 | 0.00 | 0.00 | 0.00 | 40 | 1026.8 |
| 20260508085119 | 12 | 102 | 11.3 | 16.1 | 0.00 | 0.00 | 0.00 | 39 | 1026.7 |
| 20260508084620 | 12 | 196 | 11.3 | 16.1 | 0.00 | 0.00 | 0.00 | 39 | 1026.8 |
| 20260508084343 | 12 | 94 | 8.0 | 14.5 | 0.00 | 0.00 | 0.00 | 40 | 1026.7 |
| 20260508083620 | 12 | 128 | 9.7 | 14.5 | 0.00 | 0.00 | 0.00 | 39 | 1026.8 |
| 20260508083119 | 12 | 142 | 8.0 | 16.1 | 0.00 | 0.00 | 0.00 | 40 | 1026.7 |
| 20260508082619 | 12 | 148 | 9.7 | 16.1 | 0.00 | 0.00 | 0.00 | 37 | 1026.7 |
| 20260508082119 | 12 | 193 | 6.4 | 17.7 | 0.00 | 0.00 | 0.00 | 38 | 1026.8 |
| 20260508081620 | 12 | 197 | 3.2 | 17.7 | 0.00 | 0.00 | 0.00 | 40 | 1026.6 |
| 20260508081119 | 11 | 243 | 6.4 | 16.1 | 0.00 | 0.00 | 0.00 | 39 | 1026.6 |
| 20260508080619 | 11 | 138 | 8.0 | 16.1 | 0.00 | 0.00 | 0.00 | 41 | 1026.6 |
| 20260508080337 | 11 | 135 | 9.7 | 16.1 | 0.00 | 0.00 | 0.00 | 38 | 1026.6 |
| 20260508075617 | 11 | 104 | 9.7 | 16.1 | 0.00 | 0.00 | 0.00 | 40 | 1026.6 |